FloripaSat 1
1 44885U 19093G   25207.81887976  .00004849  00000-0  40574-3 0  9999
2 44885  97.8173 295.5299 0011501  49.2926 310.9293 14.98890280303829
RS-44
1 44909U 19096E   25207.07161677 -.00000002  00000-0 -53754-4 0  9994
2 44909  82.5203 196.3891 0217267 186.5726 173.2516 12.79742217260684
UPMSat 2
1 46276U 20061E   25207.16299818  .00088529  00000-0  58936-3 0  9990
2 46276  97.2404 283.3121 0001403 155.4338 204.6994 15.75147210272783
SALSAT
1 46495U 20068K   25207.52660043  .00006574  00000-0  27999-3 0  9997
2 46495  97.8630 187.7493 0011191   9.3805 350.7637 15.23290119265670
CubeSX-Sirius-HSE
1 47951U 21022V   25157.62701764  .07883385  25648-5  89537-3 0  9993
2 47951  97.4004  72.1904 0010275 223.9924 136.0557 16.36879307233400
CubeSX-HSE
1 47952U 21022W   25157.69972699  .06655353  25454-5  93288-3 0  9992
2 47952  97.3980  72.5414 0010307 219.3637 140.6911 16.34906352233436
GRBAlpha
1 47959U 21022AD  25160.45426279  .07940347  25506-5  90589-3 0  9995
2 47959  97.3899  75.6235 0011032 227.2558 132.7812 16.36806138232695
TUBIN
1 48900U 21059X   25207.73561083  .00053560  00000-0  55977-3 0  9992
2 48900  97.6766  20.9328 0003304  69.6231 290.5382 15.64311373227403
LEDSAT
1 49069U 21073D   25207.72579246  .00086163  00000-0  80401-3 0  9999
2 49069  97.3866 291.4381 0008352 250.0689 109.9672 15.67007676218803
CUTE
1 49263U 21088D   25207.74587855  .00021962  00000-0  40460-3 0  9995
2 49263  97.4489 285.4247 0008074  74.5649 285.6493 15.49139944211722
TeikyoSat 4
1 49396U 21102B   25207.07445965  .00001422  00000-0  96772-4 0  9997
2 49396  97.4071 243.8224 0011784 341.5872  18.4928 15.07801576203554
Z-Sat
1 49399U 21102E   25207.79058530  .00004505  00000-0  24583-3 0  9992
2 49399  97.3769 247.9046 0016392 303.0300  56.9357 15.14737823204124
KOSEN 1
1 49402U 21102H   25207.65746130  .00006344  00000-0  29009-3 0  9993
2 49402  97.3670 251.5516 0013904 273.9138  86.0508 15.20806520204448
HO-113
1 50466U 21131B   25207.84406089  .00000481  00000-0  16378-3 0  9995
2 50466  98.5107 296.9669 0004102  12.4177 347.7112 14.40859141188255
Foresail-1
1 52766U 22057AL  25176.64799660  .13857605  27391-5  25307-3 0  9992
2 52766  97.5832 331.2310 0012137 233.7199 258.4922 16.46795272172486
SNUGLITE 2
1 52899U 22065F   25207.46810882  .00001092  00000-0  22092-3 0  9991
2 52899  98.1747 349.0016 0006893 335.4208  24.6665 14.63301200163341
UmKA 1 (RS40S)
1 57172U 23091G   25207.87989035  .00005883  00000-0  31085-3 0  9996
2 57172  97.5550 263.0210 0014837 164.9403 195.2274 15.15784522114645
CubeBel-2 (EU11S)
1 57175U 23091K   25207.84763563  .00009960  00000-0  46410-3 0  9990
2 57175  97.5547 264.4319 0012449 170.6626 189.4843 15.20029516114735
VERONIKA
1 58261U 23174F   25207.82425657  .00428334  70202-4  14894-2 0  9991
2 58261  97.4047 297.3904 0008211 236.2275 123.8215 15.89320978 96131
ENSO
1 58470U 23185J   25207.83936526  .00069880  00000-0  83771-3 0  9991
2 58470  97.3704 284.6288 0005773 251.8436 108.2193 15.60689638 92394
EIRSAT-1
1 58472U 23185L   25207.85814192  .00216974  00000-0  11860-2 0  9996
2 58472  97.3629 287.5725 0006309 241.6327 118.4305 15.79241787 92591
SONATE-2
1 59112U 24043Q   25206.93222472  .00015454  00000-0  42805-3 0  9998
2 59112  97.5192 339.0950 0009665 312.3106  47.7319 15.37019373 77457
MO-122
1 60209U 24125G   25207.12997912  .00016750  00000-0  45498-3 0  9999
2 60209  97.2744  58.2600 0017081 334.9346  25.1068 15.37498083 59107
GRBBeta
1 60237U 24128C   25207.17929858  .00003249  00000-0  24846-3 0  9995
2 60237  61.9913 277.0398 0054981  67.4405 293.2491 15.02959937 57202
Curium One
1 60242U 24128H   25207.53390221  .00005775  00000-0  39899-3 0  9997
2 60242  61.9807 273.3792 0054989  63.7901 296.8830 15.05674648 57308
ROBUSTA-3A
1 60243U 24128J   25207.55133719  .00005391  00000-0  37871-3 0  9999
2 60243  61.9879 274.3052 0054049  61.4729 299.1790 15.05196773 57295
CatSat
1 60246U 24125J   25207.16901075  .00012772  00000-0  41593-3 0  9991
2 60246  97.2549  56.9697 0039974 288.6948  70.9957 15.31186838 57110
HYPERVIEW-1G (RS66S)
1 61772U 24199AP  25207.89850545  .00021847  00000-0  60053-3 0  9997
2 61772  97.3464  76.6947 0013625  31.5478 328.6581 15.37130584 84228
AO-123
1 61781U 24199AY  25207.84266864  .00007114  00000-0  25515-3 0  9992
2 61781  97.3483  74.9901 0016582  36.1328 324.1029 15.28886233 84104
ZIMSAT 2
1 61783U 24199BA  25207.90182281  .00042537  00000-0  93868-3 0  9995
2 61783  97.3435  77.7124 0012697  28.9843 331.2108 15.43684119 87448
HADES-R (SO-124)
1 62690U 25009CK  25206.18093562  .00035631  00000-0  11572-2 0  9994
2 62690  97.4080 286.8899 0001542 265.8891  94.2174 15.31846045 29122
HYDRA-T
1 62692U 25009CM  25206.15782688  .00037170  00000-0  11945-2 0  9991
2 62692  97.4086 286.9207 0001533 254.7084 105.3988 15.32176537 29125
JINJUSat 1B
1 63210U 25052A   25207.17177811  .00010849  00000-0  48502-3 0  9999
2 63210  97.4360 100.7181 0005413 139.6245 220.5394 15.21482625 20333
NUSHSAT 1
1 63211U 25052B   25206.69809345  .00011517  00000-0  51003-3 0  9993
2 63211  97.4353 100.2640 0005231 144.2662 215.8925 15.21791898 20268
TEVEL2-4
1 63213U 25052D   25207.18159474  .00011670  00000-0  52171-3 0  9998
2 63213  97.4265 100.5455 0003996 152.5110 207.6338 15.21468233 20334
TEVEL2-5
1 63214U 25052E   25207.51170226  .00011384  00000-0  50932-3 0  9999
2 63214  97.4265 100.8685 0004025 150.9672 209.1788 15.21449040 20388
TEVEL2-6
1 63215U 25052F   25207.51508419  .00011654  00000-0  52189-3 0  9995
2 63215  97.4266 100.8658 0004000 153.0835 207.0609 15.21409279 20387
TEVEL2-1
1 63217U 25052H   25207.13833790  .00010136  00000-0  45761-3 0  9990
2 63217  97.4241 100.4099 0003672 166.4820 193.6515 15.21168526 20320
TEVEL2-2
1 63218U 25052J   25207.20436958  .00010751  00000-0  48510-3 0  9992
2 63218  97.4242 100.4761 0003691 166.9681 193.1651 15.21174101 20332
TEVEL2-3
1 63219U 25052K   25207.20468554  .00010708  00000-0  48326-3 0  9997
2 63219  97.4241 100.4752 0003673 166.8295 193.3037 15.21166257 20335
TEVEL2-8
1 63237U 25052AD  25207.70246317  .00010683  00000-0  49940-3 0  9998
2 63237  97.4307 100.8386 0007311 196.2123 163.8879 15.19939377 20395
TEVEL2-9
1 63238U 25052AE  25207.24595135  .00010474  00000-0  49083-3 0  9999
2 63238  97.4310 100.3818 0007394 198.4940 161.6027 15.19857466 20329
TEVEL2-7
1 63239U 25052AF  25207.18308669  .00010682  00000-0  50098-3 0  9996
2 63239  97.4307 100.3113 0007316 199.1978 160.8982 15.19823863 20311
HYDRA-W
1 63490U 25052BL  25207.68148072  .00025893  00000-0  10276-2 0  9993
2 63490  97.4255 101.3861 0010826 194.3378 165.7555 15.25280757 20433
HADES-ICM (SO-125)
1 63492U 25052BN  25207.51456630  .00024579  00000-0  99239-3 0  9996
2 63492  97.4259 101.1614 0010881 199.8237 160.2579 15.24713802 20402
